sat.trackr.live / text

‹ back to catalog

STARLINK-3913

NORAD 52485 · 2022-049AL

PAYLOAD ACTIVE UNKNOWN

§ Identity

Operator
Country
US
Launch date
2022-05-06
Launch site
AFETR
Launch vehicle
Mass (kg)
RCS (m²)

Purposes: comms

External: N2YO · Heavens-Above · Gunter

§ Orbital elements

Epoch: 2026-09-19T13:53:54.133728Z

Period
93.90 min
Inclination
53.1597°
Eccentricity
0.0001293
Mean motion
15.33551913 rev/d
Perigee alt
464.3 km
Apogee alt
466.1 km
Semi-major
6,843.4 km
B*
3.9638e-5
RAAN
248.0810°
Arg perigee
86.1209°
Mean anomaly
273.9941°
Rev number
24,180

§ Raw data

STARLINK-39131 52485U 22049AL  26262.57909877  .00000931  00000+0  39638-4 0  99962 52485  53.1597 248.0810 0001293  86.1209 273.9941 15.33551913241806

JSON: /api/v1/satellites/52485 · /tle

For live sub-satellite position, see the globe view (requires WebGL).

§ Visibility from observer

Set your observer location to see the next 7 days of passes ≥ 10°. The values pass through the URL so the page stays shareable.

No JS? Fill the form by hand. The geolocation button needs JavaScript.